#timestamp,LO_Frequency,Hit 
1497513615.4,286047013.8,N
1497513635.2,286047011.3,N
1497513655.0,286047010.9,N
1497513655.9,286047010.9,N
1497513675.8,286047013.4,N
1497513695.6,286047011.1,N
1497513715.4,286047011.4,N
1497513735.3,286047013.2,N
1497513755.1,286047011.8,N
1497513775.9,286047009.7,N
1497513795.7,286047010.2,N
1497513815.5,286047012.4,N
1497513835.4,286047011.8,N
1497513855.2,286047012.3,N
1497513875.0,286047011.5,N
1497513875.9,286047011.5,N
1497513895.8,286047011.2,N
1497513915.6,286047011.2,N
1497513935.5,286047011.8,N
1497513955.3,286047011.8,N
1497513975.1,286047011.7,N
1497513995.9,286047009.7,N
1497514015.7,286047010.5,N
1497514035.5,286047009.3,N
1497514055.4,286047011.8,N
1497514075.2,286047011.6,N
1497514095.1,286047012.1,N
1497514096.0,286047012.1,N
1497514115.8,286047011.2,N
1497514135.6,286047012.4,N
1497514155.5,286047010.3,N
1497514175.3,286047009.8,N
1497514195.1,286047012.2,N
1497514215.9,286047012.3,N
1497514235.7,286047009.3,N
1497514255.6,286047012.2,N
1497514275.4,286047012.3,N
1497514295.2,286047011.9,N
1497514315.1,286047010.4,N
1497514316.0,286047010.4,N
1497514335.8,286047010.7,N
1497514355.7,286047009.5,N
1497514375.5,286047012.4,N
1497514395.3,286047012.1,N
1497514417.4,286047010.0,N
1497514435.4,286047010.1,N
1497514455.3,286047010.7,N
1497514475.1,286047009.8,N
1497514495.8,286047010.4,N
1497514515.7,286047009.0,N
1497514535.5,286047007.9,N
1497514555.4,286047008.4,N
1497514575.2,286047008.2,N
1497514595.0,286047008.5,N
1497514595.9,286047008.5,N
1497514615.8,286047010.7,N
1497514635.6,286047009.2,N
1497514655.4,286047006.5,N
1497514675.3,286047008.2,N
1497514695.1,286047009.0,N
1497514715.9,286047006.6,N
1497514735.7,286047009.2,N
1497514755.5,286047006.3,N
1497514775.4,286047008.9,N
1497514795.2,286047010.7,N
1497514815.0,286047008.7,N
1497514816.0,286047008.7,N
1497514835.8,286047008.8,N
1497514855.6,286047006.5,N
1497514875.5,286047006.2,N
1497514895.3,286047009.0,N
1497514915.1,286047009.9,N
1497514935.4,286047008.2,N
1497514955.2,286047008.1,N
1497514975.1,286047009.6,N
1497514976.0,286047009.6,N
1497514995.8,286047010.0,N
1497515015.6,286047008.6,N
1497515035.5,286047010.8,N
1497515055.3,286047008.5,N
1497515075.1,286047009.0,N
1497515095.9,286047006.2,N
1497515115.7,286047008.8,N
1497515135.6,286047007.9,N
1497515155.4,286047010.4,N
1497515175.2,286047009.1,N
1497515195.1,286047006.1,N
1497515196.0,286047006.1,N
1497515215.8,286047008.9,N
1497515235.7,286047009.0,N
1497515255.5,286047006.3,N
1497515275.3,286047008.4,N
1497515295.2,286047008.1,N
1497515315.0,286047009.0,N
1497515315.9,286047009.0,N
1497515335.7,286047010.8,N
1497515355.6,286047008.6,N
1497515375.4,286047008.1,N
1497515395.3,286047008.9,N
1497515415.1,286047008.4,N
1497515416.0,286047008.4,N
1497515435.8,286047009.6,N
1497515455.7,286047007.8,N
1497515475.5,286047007.7,N
1497515495.4,286047010.6,N
1497515515.2,286047010.2,N
1497515535.1,286047010.4,N
1497515536.0,286047010.4,N
1497515555.8,286047010.2,N
1497515575.7,286047008.4,N
1497515595.5,286047006.5,N
1497515615.3,286047006.6,N
1497515635.2,286047009.1,N
1497515655.9,286047008.6,N
1497515675.7,286047009.2,N
1497515695.6,286047004.6,N
1497515715.4,286047009.2,N
1497515735.2,286047008.8,N
1497515755.1,286047008.0,N
1497515756.0,286047008.0,N
1497515775.8,286047008.2,N
1497515795.7,286047008.3,N
1497515815.5,286047008.8,N
1497515835.3,286047008.4,N
1497515855.2,286047008.9,N
1497515875.0,286047008.6,N
1497515875.9,286047008.6,N
1497515895.8,286047010.7,N
1497515915.6,286047009.0,N
1497515935.4,286047008.8,N
1497515955.3,286047006.1,N
1497515975.1,286047006.1,N
1497515995.8,286047006.4,N
1497516015.7,286047006.4,N
1497516035.5,286047009.2,N
1497516055.3,286047006.2,N
1497516075.2,286047006.1,N
1497516095.0,286047008.8,N
1497516095.9,286047008.8,N
1497516115.8,286047006.4,N
1497516135.6,286047007.3,N
1497516155.4,286047006.2,N
1497516175.3,286047007.2,N
1497516195.1,286047005.8,N
1497516215.9,286047005.1,N
1497516235.7,286047007.2,N
1497516255.5,286047005.1,N
1497516275.4,286047004.7,N
1497516295.2,286047007.5,N
1497516315.0,286047006.9,N
1497516315.9,286047006.9,N
1497516335.8,286047005.9,N
1497516355.6,286047002.9,N
1497516375.5,286047005.3,N
1497516395.3,286047005.3,N
1497516415.1,286047005.7,N
1497516435.9,286047003.0,N
1497516455.7,286047003.1,N
1497516475.5,286047001.3,N
1497516495.4,286047001.3,N
1497516515.2,286047002.2,N
1497516535.0,286047002.2,N
1497516536.0,286047002.2,N
1497516555.8,286047002.4,N
1497516575.6,286046999.7,N
1497516595.5,286047003.9,N
1497516615.3,286047002.3,N
1497516635.1,286047000.1,N
1497516655.9,286047000.7,N
1497516675.7,286047000.3,N
1497516695.6,286047002.8,N
1497516715.4,286047000.1,N
1497516735.2,286046999.9,N
1497516755.1,286047000.6,N
1497516756.0,286047000.6,N
1497516775.8,286047000.1,N
1497516795.6,286046998.5,N
1497516815.5,286047000.9,N
1497516835.3,286047000.6,N
1497516855.2,286046998.7,N
1497516875.9,286046998.4,N
1497516895.7,286046998.3,N
1497516915.6,286046998.6,N
1497516935.4,286046998.9,N
1497516955.2,286046999.5,N
1497516975.1,286046996.7,N
1497516976.0,286046996.7,N
1497516995.8,286046998.3,N
1497517015.7,286046996.8,N
1497517035.5,286046997.0,N
1497517055.3,286046999.6,N
1497517075.2,286046998.3,N
1497517095.9,286046996.9,N
1497517115.7,286046999.2,N
1497517135.6,286046998.0,N
1497517155.4,286046995.0,N
1497517175.2,286046997.9,N
1497517195.1,286046997.7,N
1497517196.0,286046997.7,N
